GW2240 Weather Reports


Display with metric or nautical units.
time (UTC)temp
F
wind
direction
speed
MPH
gust
MPH
rain 1hr
in
rain 24hr
in
rain mn
in
humidity
%
barometer
mb
20260508221514 76 204 0.0 0.0 0.00 0.00 0.00 88 1009.4
20260508220014 76 204 0.0 0.0 0.00 0.00 0.00 87 1009.7
20260508214513 77 212 0.0 0.0 0.00 0.00 0.00 86 1009.4
20260508213011 77 3 0.0 0.0 0.00 0.00 0.00 85 1009.6
20260508211521 77 11 0.0 0.0 0.00 0.00 0.00 86 1009.8
20260508210009 77 11 0.0 0.0 0.00 0.00 0.00 84 1009.9
20260508204508 77 342 0.0 0.0 0.00 0.00 0.00 84 1010.0
20260508203006 78 292 0.0 0.0 0.00 0.00 0.00 85 1010.1
20260508201502 77 219 0.0 0.0 0.00 0.00 0.00 84 1010.3
20260508200111 76 209 0.0 0.0 0.00 0.00 0.00 86 1010.4
20260508194604 76 209 0.0 0.0 0.00 0.00 0.00 85 1010.5
20260508193105 76 265 0.0 0.0 0.00 0.00 0.00 85 1010.7
20260508191555 76 17 0.0 0.0 0.00 0.00 0.00 85 1011.0
20260508190053 76 276 0.0 3.0 0.00 0.00 0.00 83 1011.1
20260508184553 75 346 0.0 3.0 0.00 0.00 0.00 84 1011.1
20260508183049 75 257 0.0 0.0 0.00 0.00 0.00 85 1011.3
20260508181543 74 3 0.0 0.0 0.00 0.00 0.00 87 1011.2
20260508180041 72 200 0.0 0.0 0.00 0.00 0.00 87 1011.5
20260508174546 72 208 0.0 0.0 0.00 0.00 0.00 87 1012.2
20260508173037 72 225 0.0 0.0 0.00 0.00 0.00 87 1012.3
20260508171538 72 210 0.0 0.0 0.00 0.00 0.00 86 1012.1
20260508170039 72 238 0.0 0.0 0.00 0.00 0.00 86 1012.2
20260508164531 72 225 0.0 0.0 0.00 0.00 0.00 85 1012.5
20260508163031 71 24 0.0 0.0 0.00 0.00 0.00 85 1012.8
20260508161528 71 177 0.0 0.0 0.00 0.00 0.00 86 1012.7
20260508160026 70 187 0.0 2.0 0.00 0.00 0.00 85 1012.8
20260508154535 70 203 0.0 3.0 0.00 0.00 0.00 86 1013.2
20260508153023 69 16 0.0 4.0 0.00 0.00 0.00 87 1013.3
20260508151529 69 11 0.0 5.0 0.00 0.00 0.00 86 1013.5
20260508150025 69 6 0.0 3.0 0.00 0.00 0.00 87 1013.7
20260508144517 67 18 0.0 4.0 0.00 0.00 0.00 88 1013.7
20260508143016 67 331 0.0 3.0 0.00 0.00 0.00 89 1014.1
20260508141520 67 21 0.0 4.0 0.00 0.00 0.00 89 1014.0
20260508140023 67 6 0.0 2.0 0.00 0.00 0.00 89 1014.1
20260508134516 67 360 1.0 4.0 0.00 0.00 0.00 89 1013.8
20260508133014 67 342 0.0 2.0 0.00 0.00 0.00 90 1013.5
20260508131514 66 32 0.0 0.0 0.00 0.00 0.00 90 1013.4
20260508130013 66 24 0.0 0.0 0.00 0.00 0.00 90 1013.4
20260508124526 66 24 0.0 1.0 0.00 0.00 0.00 90 1012.8
20260508123024 66 12 0.0 0.0 0.00 0.00 0.00 88 1013.3
20260508121510 66 9 0.0 0.0 0.00 0.00 0.00 87 1013.1
20260508120008 66 196 0.0 0.0 0.00 0.00 0.00 85 1013.6
20260508114506 67 338 0.0 0.0 0.00 0.00 0.00 84 1013.5
20260508113010 67 352 0.0 0.0 0.00 0.00 0.00 83 1013.6
20260508111504 67 11 0.0 2.0 0.00 0.00 0.00 83 1013.6
20260508110003 67 10 0.0 3.0 0.00 0.00 0.00 83 1012.9
20260508104502 68 248 0.0 0.0 0.00 0.00 0.00 83 1012.9
20260508103003 68 347 0.0 1.0 0.00 0.00 0.00 83 1013.4
20260508101502 68 8 0.0 2.0 0.00 0.00 0.00 83 1013.6
20260508100001 68 33 0.0 0.0 0.00 0.00 0.00 83 1013.7
20260508094606 68 194 0.0 0.0 0.00 0.00 0.00 83 1012.9
20260508093059 68 4 0.0 2.0 0.00 0.00 0.00 83 1013.4
20260508091606 68 312 0.0 2.0 0.00 0.00 0.00 82 1013.0
20260508090108 68 358 0.0 3.0 0.00 0.00 0.00 82 1013.1
20260508084555 68 237 0.0 0.0 0.00 0.00 0.00 82 1013.2
20260508083054 68 339 0.0 2.0 0.00 0.00 0.00 81 1013.4
20260508081607 68 329 0.0 2.0 0.00 0.00 0.00 81 1013.1
20260508080057 68 3 0.0 0.0 0.00 0.00 0.00 81 1013.2
20260508074550 68 356 0.0 0.0 0.00 0.00 0.00 80 1013.7
20260508073059 68 240 0.0 1.0 0.00 0.00 0.00 80 1013.9
20260508071605 68 327 0.0 2.0 0.00 0.00 0.00 80 1013.7
20260508070058 68 11 0.0 5.0 0.00 0.00 0.00 80 1013.6
20260508064548 68 344 0.0 3.0 0.00 0.00 0.00 80 1014.1
20260508063048 68 2 0.0 1.0 0.00 0.00 0.00 80 1014.1
20260508061548 68 23 0.0 4.0 0.00 0.00 0.00 80 1014.0
20260508060046 68 9 0.0 1.0 0.00 0.00 0.00 80 1013.6
20260508054549 68 10 0.0 0.0 0.00 0.00 0.00 80 1014.0
20260508053049 68 226 0.0 0.0 0.00 0.00 0.00 79 1013.5
20260508051543 68 266 0.0 0.0 0.00 0.00 0.00 79 1013.7
20260508050042 68 207 0.0 0.0 0.00 0.00 0.00 78 1013.8
20260508044538 68 350 0.0 0.0 0.00 0.00 0.00 77 1013.7
20260508043037 68 29 0.0 2.0 0.00 0.00 0.00 77 1014.0
20260508041539 69 11 0.0 2.0 0.00 0.00 0.00 76 1014.0
20260508040037 69 323 0.0 0.0 0.00 0.00 0.00 76 1014.0
20260508034539 69 322 0.0 4.0 0.00 0.00 0.00 74 1013.9
20260508033048 69 38 0.0 2.0 0.00 0.00 0.00 74 1013.7
20260508031538 70 201 0.0 2.0 0.00 0.00 0.00 74 1014.1
20260508030036 70 2 0.0 2.0 0.00 0.00 0.00 73 1014.0
20260508024536 70 19 0.0 3.0 0.00 0.00 0.00 72 1014.4
20260508023039 70 357 0.0 3.0 0.00 0.00 0.00 74 1014.4
20260508021536 71 345 0.0 2.0 0.00 0.00 0.00 73 1013.9
20260508020041 71 351 0.0 1.0 0.00 0.00 0.00 73 1014.3
20260508014533 71 358 0.0 0.0 0.00 0.00 0.00 74 1014.0
20260508013032 71 346 0.0 0.0 0.00 0.00 0.00 73 1014.1
20260508011536 72 334 0.0 2.0 0.00 0.00 0.00 72 1014.1
20260508010036 72 334 0.0 0.0 0.00 0.00 0.00 71 1013.9
20260508004533 72 295 0.0 0.0 0.00 0.00 0.00 74 1013.7
20260508003032 73 11 0.0 1.0 0.00 0.00 0.00 73 1013.9
20260508001545 74 354 0.0 2.0 0.00 0.00 0.00 70 1014.1
20260508000029 74 347 0.0 2.0 0.00 0.00 0.00 71 1014.0
20260507234529 74 19 0.0 7.0 0.00 0.00 0.00 69 1014.3
20260507233033 75 36 0.0 4.0 0.00 0.00 0.00 70 1014.2
20260507231527 75 29 0.0 3.0 0.00 0.00 0.00 70 1014.0
20260507230032 75 2 0.0 3.0 0.00 0.00 0.00 70 1014.1
20260507224532 75 341 0.0 1.0 0.00 0.00 0.00 71 1013.7
20260507223026 75 335 0.0 3.0 0.00 0.00 0.00 69 1013.6